| time (UTC) | temp F | wind direction | speed MPH | gust MPH | rain 1hr in | rain 24hr in | rain mn in | humidity % | barometer mb |
| 20260901035519 | 58 | 261 | 0.0 | 0.0 | 0.00 | 0.44 | 0.13 | 96 | 1017.1 |
| 20260901035019 | 58 | 261 | 0.0 | 0.0 | 0.00 | 0.44 | 0.13 | 96 | 1017.2 |
| 20260901034519 | 58 | 261 | 0.0 | 0.0 | 0.00 | 0.44 | 0.13 | 96 | 1017.1 |
| 20260901034017 | 58 | 261 | 0.0 | 0.0 | 0.00 | 0.44 | 0.13 | 96 | 1017.1 |
| 20260901033519 | 59 | 261 | 0.0 | 0.0 | 0.00 | 0.44 | 0.13 | 96 | 1017.1 |
| 20260901033018 | 59 | 261 | 0.0 | 0.0 | 0.00 | 0.44 | 0.13 | 96 | 1017.0 |
| 20260901032517 | 59 | 261 | 0.0 | 0.0 | 0.00 | 0.44 | 0.13 | 95 | 1017.0 |
| 20260901032020 | 59 | 261 | 0.0 | 0.0 | 0.00 | 0.44 | 0.13 | 96 | 1017.0 |
| 20260901031529 | 59 | 261 | 0.0 | 0.0 | 0.00 | 0.44 | 0.13 | 95 | 1017.0 |
| 20260901031019 | 59 | 261 | 0.0 | 0.0 | 0.00 | 0.44 | 0.13 | 95 | 1016.9 |
| 20260901030515 | 59 | 261 | 0.0 | 0.0 | 0.00 | 0.44 | 0.13 | 95 | 1017.0 |
| 20260901030015 | 59 | 261 | 0.0 | 0.0 | 0.00 | 0.44 | 0.13 | 95 | 1016.9 |
| 20260901025517 | 59 | 261 | 0.0 | 0.0 | 0.00 | 0.44 | 0.13 | 95 | 1016.8 |
| 20260901025018 | 59 | 261 | 0.0 | 0.0 | 0.00 | 0.44 | 0.13 | 95 | 1016.8 |
| 20260901024514 | 59 | 261 | 0.0 | 0.0 | 0.00 | 0.44 | 0.13 | 95 | 1016.8 |
| 20260901024013 | 59 | 261 | 0.0 | 0.0 | 0.00 | 0.44 | 0.13 | 95 | 1016.8 |
| 20260901023512 | 60 | 261 | 0.0 | 0.0 | 0.00 | 0.44 | 0.13 | 95 | 1016.8 |
| 20260901023023 | 60 | 261 | 0.0 | 0.0 | 0.02 | 0.44 | 0.13 | 95 | 1016.9 |
| 20260901022517 | 60 | 261 | 0.0 | 0.0 | 0.09 | 0.44 | 0.13 | 95 | 1016.9 |
| 20260901022013 | 60 | 261 | 0.0 | 0.0 | 0.13 | 0.44 | 0.13 | 95 | 1016.9 |
| 20260901021518 | 60 | 261 | 0.0 | 0.0 | 0.13 | 0.44 | 0.13 | 95 | 1016.9 |
| 20260901021012 | 60 | 261 | 0.0 | 0.0 | 0.13 | 0.44 | 0.13 | 95 | 1016.9 |
| 20260901020513 | 61 | 261 | 0.0 | 0.0 | 0.13 | 0.44 | 0.13 | 95 | 1016.9 |
| 20260901020026 | 61 | 261 | 0.0 | 0.0 | 0.13 | 0.44 | 0.13 | 95 | 1016.8 |
| 20260901015510 | 61 | 261 | 0.0 | 0.0 | 0.13 | 0.44 | 0.13 | 95 | 1016.8 |
| 20260901015011 | 61 | 261 | 0.0 | 0.0 | 0.13 | 0.44 | 0.13 | 95 | 1016.8 |
| 20260901014515 | 61 | 261 | 0.0 | 0.0 | 0.13 | 0.44 | 0.13 | 95 | 1016.7 |
| 20260901014011 | 61 | 261 | 0.0 | 0.0 | 0.13 | 0.44 | 0.13 | 95 | 1016.7 |
| 20260901013516 | 61 | 261 | 0.0 | 4.0 | 0.13 | 0.44 | 0.13 | 95 | 1016.7 |
| 20260901013024 | 61 | 263 | 1.0 | 8.0 | 0.09 | 0.41 | 0.09 | 95 | 1016.8 |
| 20260901012510 | 59 | 74 | 0.0 | 2.0 | 0.02 | 0.33 | 0.02 | 95 | 1016.8 |
| 20260901012009 | 59 | 244 | 0.0 | 0.0 | 0.00 | 0.31 | 0.00 | 94 | 1016.5 |
| 20260901011514 | 59 | 244 | 0.0 | 0.0 | 0.00 | 0.31 | 0.00 | 94 | 1016.5 |
| 20260901011009 | 59 | 244 | 0.0 | 0.0 | 0.00 | 0.31 | 0.00 | 94 | 1016.5 |
| 20260901010507 | 59 | 244 | 0.0 | 0.0 | 0.00 | 0.31 | 0.00 | 94 | 1016.5 |
| 20260901010008 | 59 | 244 | 0.0 | 0.0 | 0.00 | 0.31 | 0.00 | 93 | 1016.5 |
| 20260901005505 | 59 | 244 | 0.0 | 0.0 | 0.00 | 0.31 | 0.00 | 93 | 1016.5 |
| 20260901005006 | 59 | 244 | 0.0 | 0.0 | 0.00 | 0.31 | 0.00 | 93 | 1016.5 |
| 20260901004505 | 59 | 244 | 0.0 | 0.0 | 0.00 | 0.31 | 0.00 | 93 | 1016.4 |
| 20260901004004 | 59 | 244 | 0.0 | 0.0 | 0.00 | 0.31 | 0.00 | 93 | 1016.5 |
| 20260901003504 | 59 | 244 | 0.0 | 0.0 | 0.00 | 0.31 | 0.00 | 93 | 1016.4 |
| 20260901003003 | 59 | 244 | 0.0 | 0.0 | 0.00 | 0.31 | 0.00 | 93 | 1016.4 |
| 20260901002503 | 59 | 244 | 0.0 | 0.0 | 0.00 | 0.31 | 0.00 | 93 | 1016.4 |
| 20260901002003 | 60 | 244 | 0.0 | 0.0 | 0.00 | 0.31 | 0.00 | 93 | 1016.4 |
| 20260901001505 | 60 | 244 | 0.0 | 0.0 | 0.00 | 0.31 | 0.00 | 93 | 1016.4 |
| 20260901001001 | 60 | 244 | 0.0 | 0.0 | 0.00 | 0.31 | 0.00 | 93 | 1016.4 |
| 20260901000503 | 60 | 244 | 0.0 | 0.0 | 0.00 | 0.31 | 0.00 | 92 | 1016.3 |
| 20260901000001 | 60 | 244 | 0.0 | 0.0 | 0.00 | 0.31 | 0.00 | 92 | 1016.3 |
| 20260831235600 | 60 | 244 | 0.0 | 0.0 | 0.00 | 0.32 | 0.00 | 92 | 1016.3 |
| 20260831235101 | 60 | 244 | 0.0 | 0.0 | 0.00 | 0.32 | 0.00 | 92 | 1016.4 |
| 20260831234559 | 60 | 244 | 0.0 | 0.0 | 0.00 | 0.32 | 0.00 | 92 | 1016.2 |
| 20260831234058 | 60 | 244 | 0.0 | 0.0 | 0.00 | 0.32 | 0.00 | 92 | 1016.2 |
| 20260831233556 | 61 | 244 | 0.0 | 0.0 | 0.00 | 0.32 | 0.00 | 92 | 1016.2 |
| 20260831233056 | 61 | 244 | 0.0 | 0.0 | 0.00 | 0.32 | 0.00 | 92 | 1016.1 |
| 20260831232555 | 61 | 244 | 0.0 | 0.0 | 0.00 | 0.32 | 0.00 | 92 | 1016.1 |
| 20260831232055 | 61 | 244 | 0.0 | 0.0 | 0.00 | 0.32 | 0.00 | 92 | 1016.0 |
| 20260831231555 | 61 | 244 | 0.0 | 0.0 | 0.00 | 0.32 | 0.00 | 92 | 1016.0 |
| 20260831231054 | 61 | 244 | 0.0 | 0.0 | 0.00 | 0.32 | 0.00 | 91 | 1016.0 |
| 20260831230554 | 61 | 244 | 0.0 | 0.0 | 0.00 | 0.32 | 0.00 | 91 | 1016.0 |
| 20260831230053 | 61 | 244 | 0.0 | 0.0 | 0.00 | 0.32 | 0.00 | 91 | 1016.0 |
| 20260831225554 | 62 | 244 | 0.0 | 0.0 | 0.00 | 0.32 | 0.00 | 91 | 1016.0 |
| 20260831225054 | 62 | 244 | 0.0 | 0.0 | 0.00 | 0.32 | 0.00 | 91 | 1016.0 |
| 20260831224555 | 62 | 244 | 0.0 | 1.0 | 0.00 | 0.32 | 0.00 | 91 | 1016.0 |
| 20260831224051 | 62 | 244 | 0.0 | 2.0 | 0.00 | 0.32 | 0.00 | 91 | 1015.9 |
| 20260831223551 | 62 | 244 | 0.0 | 3.0 | 0.00 | 0.32 | 0.00 | 91 | 1015.9 |
| 20260831223050 | 62 | 333 | 0.0 | 1.0 | 0.00 | 0.32 | 0.00 | 91 | 1015.9 |
| 20260831222549 | 62 | 333 | 0.0 | 0.0 | 0.00 | 0.32 | 0.00 | 91 | 1015.8 |
| 20260831222049 | 62 | 333 | 0.0 | 0.0 | 0.00 | 0.32 | 0.00 | 90 | 1015.8 |
| 20260831221559 | 62 | 333 | 0.0 | 0.0 | 0.00 | 0.32 | 0.00 | 90 | 1015.7 |
| 20260831221049 | 62 | 333 | 0.0 | 0.0 | 0.00 | 0.32 | 0.00 | 90 | 1015.8 |
| 20260831220547 | 62 | 333 | 0.0 | 0.0 | 0.00 | 0.32 | 0.00 | 90 | 1015.8 |
| 20260831220047 | 62 | 333 | 0.0 | 0.0 | 0.00 | 0.32 | 0.00 | 90 | 1015.7 |
| 20260831215547 | 62 | 333 | 0.0 | 0.0 | 0.00 | 0.55 | 0.32 | 90 | 1015.7 |
| 20260831215045 | 62 | 333 | 0.0 | 0.0 | 0.00 | 0.55 | 0.32 | 90 | 1015.8 |
| 20260831214555 | 62 | 333 | 0.0 | 0.0 | 0.00 | 0.55 | 0.32 | 90 | 1015.7 |
| 20260831214046 | 62 | 333 | 0.0 | 0.0 | 0.00 | 0.55 | 0.32 | 90 | 1015.7 |
| 20260831213545 | 62 | 333 | 0.0 | 0.0 | 0.00 | 0.55 | 0.32 | 89 | 1015.7 |
| 20260831213051 | 62 | 333 | 0.0 | 0.0 | 0.00 | 0.55 | 0.32 | 89 | 1015.7 |
| 20260831212544 | 62 | 333 | 0.0 | 0.0 | 0.00 | 0.55 | 0.32 | 89 | 1015.6 |
| 20260831212047 | 62 | 333 | 0.0 | 0.0 | 0.00 | 0.55 | 0.32 | 89 | 1015.6 |
| 20260831211544 | 62 | 333 | 0.0 | 0.0 | 0.00 | 0.55 | 0.32 | 89 | 1015.6 |
| 20260831211043 | 62 | 333 | 0.0 | 0.0 | 0.00 | 0.55 | 0.32 | 88 | 1015.5 |
| 20260831210543 | 62 | 333 | 0.0 | 0.0 | 0.00 | 0.55 | 0.32 | 88 | 1015.5 |
| 20260831210042 | 62 | 333 | 0.0 | 0.0 | 0.00 | 0.55 | 0.32 | 88 | 1015.5 |
| 20260831205541 | 62 | 333 | 0.0 | 0.0 | 0.00 | 0.56 | 0.32 | 87 | 1015.4 |
| 20260831205042 | 62 | 333 | 0.0 | 0.0 | 0.00 | 0.56 | 0.32 | 87 | 1015.4 |
| 20260831204545 | 62 | 333 | 0.0 | 0.0 | 0.00 | 0.56 | 0.32 | 87 | 1015.3 |
| 20260831204040 | 62 | 333 | 0.0 | 0.0 | 0.00 | 0.56 | 0.32 | 86 | 1015.3 |
| 20260831203538 | 63 | 333 | 0.0 | 0.0 | 0.00 | 0.56 | 0.32 | 86 | 1015.2 |
| 20260831203048 | 63 | 333 | 0.0 | 0.0 | 0.00 | 0.56 | 0.32 | 86 | 1015.2 |
| 20260831202543 | 63 | 333 | 0.0 | 0.0 | 0.00 | 0.56 | 0.32 | 85 | 1015.1 |
| 20260831202038 | 63 | 333 | 0.0 | 0.0 | 0.00 | 0.56 | 0.32 | 85 | 1015.2 |
| 20260831201538 | 64 | 333 | 0.0 | 0.0 | 0.00 | 0.56 | 0.32 | 85 | 1015.2 |
| 20260831201038 | 64 | 333 | 0.0 | 1.0 | 0.00 | 0.56 | 0.32 | 85 | 1015.1 |
| 20260831200538 | 64 | 333 | 0.0 | 4.0 | 0.00 | 0.56 | 0.32 | 85 | 1015.1 |
| 20260831200040 | 64 | 333 | 0.0 | 4.0 | 0.00 | 0.56 | 0.32 | 85 | 1015.0 |
| 20260831195536 | 64 | 321 | 0.0 | 4.0 | 0.00 | 0.56 | 0.32 | 84 | 1015.0 |
| 20260831195035 | 64 | 336 | 0.0 | 3.0 | 0.00 | 0.56 | 0.32 | 84 | 1014.9 |
| 20260831194535 | 64 | 322 | 1.0 | 5.0 | 0.00 | 0.56 | 0.32 | 84 | 1014.9 |
| 20260831194037 | 64 | 318 | 0.0 | 5.0 | 0.00 | 0.56 | 0.32 | 84 | 1014.8 |
| 20260831193534 | 64 | 322 | 1.0 | 5.0 | 0.00 | 0.56 | 0.32 | 83 | 1014.7 |
| 20260831193034 | 65 | 347 | 1.0 | 4.0 | 0.00 | 0.56 | 0.32 | 83 | 1014.7 |
| 20260831192532 | 65 | 333 | 1.0 | 4.0 | 0.00 | 0.56 | 0.32 | 83 | 1014.7 |
| 20260831192032 | 65 | 338 | 0.0 | 5.0 | 0.00 | 0.56 | 0.32 | 83 | 1014.6 |
| 20260831191543 | 65 | 208 | 1.0 | 6.0 | 0.00 | 0.56 | 0.32 | 83 | 1014.6 |
| 20260831191031 | 65 | 360 | 1.0 | 6.0 | 0.00 | 0.56 | 0.32 | 83 | 1014.5 |
| 20260831190530 | 65 | 355 | 1.0 | 6.0 | 0.00 | 0.56 | 0.32 | 83 | 1014.4 |
| 20260831190030 | 65 | 309 | 1.0 | 6.0 | 0.00 | 0.56 | 0.32 | 82 | 1014.4 |
| 20260831185528 | 65 | 332 | 2.0 | 6.0 | 0.00 | 0.56 | 0.32 | 82 | 1014.3 |
| 20260831185031 | 65 | 322 | 2.0 | 6.0 | 0.00 | 0.56 | 0.32 | 82 | 1014.2 |
| 20260831184529 | 65 | 311 | 2.0 | 6.0 | 0.00 | 0.56 | 0.32 | 82 | 1014.2 |
| 20260831184031 | 65 | 310 | 1.0 | 9.0 | 0.00 | 0.56 | 0.32 | 82 | 1014.0 |
| 20260831183529 | 65 | 316 | 1.0 | 10.0 | 0.00 | 0.56 | 0.32 | 82 | 1014.0 |
| 20260831183026 | 66 | 78 | 2.0 | 10.0 | 0.00 | 0.56 | 0.32 | 81 | 1013.9 |
| 20260831182525 | 66 | 336 | 2.0 | 9.0 | 0.00 | 0.56 | 0.32 | 81 | 1013.8 |
| 20260831182025 | 66 | 313 | 2.0 | 10.0 | 0.00 | 0.56 | 0.32 | 81 | 1013.8 |
| 20260831181524 | 66 | 325 | 4.0 | 10.0 | 0.00 | 0.56 | 0.32 | 81 | 1013.6 |
| 20260831181023 | 66 | 355 | 2.0 | 9.0 | 0.00 | 0.56 | 0.32 | 82 | 1013.6 |
| 20260831180521 | 66 | 296 | 2.0 | 8.0 | 0.00 | 0.56 | 0.32 | 82 | 1013.5 |
| 20260831180021 | 66 | 355 | 2.0 | 10.0 | 0.00 | 0.56 | 0.32 | 81 | 1013.4 |
| 20260831175521 | 66 | 9 | 2.0 | 10.0 | 0.00 | 0.56 | 0.32 | 81 | 1013.4 |
| 20260831175020 | 66 | 34 | 2.0 | 6.0 | 0.00 | 0.56 | 0.32 | 81 | 1013.3 |
| 20260831174520 | 66 | 318 | 1.0 | 9.0 | 0.00 | 0.56 | 0.32 | 81 | 1013.2 |
| 20260831174023 | 66 | 317 | 3.0 | 12.0 | 0.00 | 0.56 | 0.32 | 80 | 1013.2 |
| 20260831173519 | 66 | 307 | 4.0 | 12.0 | 0.00 | 0.56 | 0.32 | 80 | 1013.1 |
| 20260831173020 | 66 | 319 | 4.0 | 10.0 | 0.00 | 0.56 | 0.32 | 80 | 1013.0 |
| 20260831172517 | 66 | 330 | 3.0 | 16.0 | 0.00 | 0.56 | 0.32 | 79 | 1012.9 |
| 20260831172020 | 66 | 311 | 6.0 | 16.0 | 0.00 | 0.56 | 0.32 | 79 | 1012.9 |
| 20260831171516 | 66 | 40 | 5.0 | 13.0 | 0.00 | 0.56 | 0.32 | 79 | 1012.8 |
| 20260831171015 | 66 | 317 | 4.0 | 15.0 | 0.00 | 0.56 | 0.32 | 79 | 1012.8 |
| 20260831170515 | 67 | 323 | 6.0 | 15.0 | 0.00 | 0.56 | 0.32 | 79 | 1012.6 |
| 20260831170017 | 67 | 325 | 4.0 | 10.0 | 0.00 | 0.56 | 0.32 | 79 | 1012.5 |
| 20260831165512 | 66 | 329 | 4.0 | 15.0 | 0.00 | 0.56 | 0.32 | 79 | 1012.5 |
| 20260831165012 | 67 | 335 | 5.0 | 15.0 | 0.00 | 0.56 | 0.32 | 78 | 1012.5 |
| 20260831164511 | 67 | 303 | 5.0 | 16.0 | 0.00 | 0.56 | 0.32 | 78 | 1012.4 |
| 20260831164012 | 67 | 313 | 7.0 | 18.0 | 0.00 | 0.56 | 0.32 | 78 | 1012.4 |
| 20260831163511 | 67 | 317 | 6.0 | 18.0 | 0.00 | 0.56 | 0.32 | 78 | 1012.4 |
| 20260831163011 | 67 | 39 | 5.0 | 16.0 | 0.00 | 0.56 | 0.32 | 78 | 1012.3 |
| 20260831162508 | 67 | 355 | 7.0 | 19.0 | 0.00 | 0.56 | 0.32 | 78 | 1012.2 |
| 20260831162008 | 67 | 336 | 5.0 | 19.0 | 0.00 | 0.56 | 0.32 | 78 | 1012.2 |
| 20260831161508 | 67 | 312 | 6.0 | 18.0 | 0.00 | 0.56 | 0.32 | 78 | 1012.1 |
| 20260831161007 | 67 | 315 | 8.0 | 18.0 | 0.00 | 0.56 | 0.32 | 78 | 1012.2 |
| 20260831160507 | 67 | 311 | 6.0 | 15.0 | 0.00 | 0.56 | 0.32 | 78 | 1012.1 |
| 20260831160008 | 67 | 172 | 4.0 | 16.0 | 0.00 | 0.56 | 0.32 | 80 | 1012.0 |
| 20260831155506 | 66 | 313 | 4.0 | 16.0 | 0.00 | 0.56 | 0.32 | 78 | 1011.9 |
| 20260831155006 | 67 | 355 | 5.0 | 17.0 | 0.00 | 0.56 | 0.32 | 78 | 1011.8 |
| 20260831154505 | 67 | 308 | 7.0 | 17.0 | 0.00 | 0.56 | 0.32 | 78 | 1011.8 |
| 20260831154004 | 67 | 305 | 7.0 | 19.0 | 0.00 | 0.56 | 0.32 | 77 | 1011.8 |
| 20260831153506 | 66 | 296 | 6.0 | 19.0 | 0.00 | 0.56 | 0.32 | 80 | 1011.7 |
| 20260831153004 | 66 | 174 | 5.0 | 18.0 | 0.00 | 0.56 | 0.32 | 80 | 1011.5 |
| 20260831152502 | 66 | 273 | 5.0 | 18.0 | 0.00 | 0.56 | 0.32 | 79 | 1011.6 |
| 20260831152005 | 66 | 142 | 6.0 | 18.0 | 0.00 | 0.56 | 0.32 | 78 | 1011.5 |
| 20260831151502 | 67 | 5 | 3.0 | 13.0 | 0.00 | 0.56 | 0.32 | 78 | 1011.5 |
| 20260831151101 | 67 | 355 | 5.0 | 14.0 | 0.00 | 0.56 | 0.32 | 78 | 1011.5 |
| 20260831150601 | 67 | 327 | 4.0 | 17.0 | 0.00 | 0.56 | 0.32 | 77 | 1011.3 |
| 20260831150108 | 67 | 68 | 6.0 | 16.0 | 0.00 | 0.56 | 0.32 | 78 | 1011.3 |
| 20260831145600 | 67 | 238 | 5.0 | 17.0 | 0.00 | 0.56 | 0.32 | 77 | 1011.3 |
| 20260831145059 | 67 | 347 | 4.0 | 17.0 | 0.00 | 0.56 | 0.32 | 77 | 1011.2 |
| 20260831144559 | 67 | 303 | 5.0 | 14.0 | 0.00 | 0.56 | 0.32 | 77 | 1011.2 |
| 20260831144059 | 67 | 289 | 5.0 | 14.0 | 0.00 | 0.56 | 0.32 | 77 | 1011.1 |
| 20260831143559 | 67 | 321 | 4.0 | 18.0 | 0.00 | 0.56 | 0.32 | 77 | 1011.1 |
| 20260831143104 | 67 | 17 | 7.0 | 16.0 | 0.00 | 0.56 | 0.32 | 76 | 1011.0 |
| 20260831142556 | 66 | 79 | 5.0 | 19.0 | 0.00 | 0.56 | 0.32 | 77 | 1010.9 |
| 20260831142057 | 67 | 342 | 8.0 | 20.0 | 0.00 | 0.56 | 0.32 | 75 | 1010.8 |
| 20260831141600 | 67 | 300 | 5.0 | 20.0 | 0.00 | 0.56 | 0.32 | 78 | 1010.8 |
| 20260831141055 | 67 | 209 | 6.0 | 15.0 | 0.00 | 0.56 | 0.32 | 75 | 1010.7 |
| 20260831140556 | 67 | 317 | 3.0 | 16.0 | 0.00 | 0.56 | 0.32 | 78 | 1010.7 |
| 20260831140057 | 66 | 296 | 6.0 | 16.0 | 0.00 | 0.56 | 0.32 | 78 | 1010.6 |
| 20260831135553 | 66 | 315 | 6.0 | 16.0 | 0.00 | 0.56 | 0.32 | 77 | 1010.5 |
| 20260831135053 | 66 | 5 | 5.0 | 16.0 | 0.00 | 0.56 | 0.32 | 78 | 1010.5 |
| 20260831134555 | 66 | 234 | 4.0 | 17.0 | 0.00 | 0.56 | 0.32 | 77 | 1010.3 |
| 20260831134051 | 66 | 335 | 4.0 | 18.0 | 0.00 | 0.56 | 0.32 | 77 | 1010.2 |
| 20260831133550 | 66 | 323 | 4.0 | 18.0 | 0.00 | 0.56 | 0.32 | 76 | 1010.1 |
| 20260831133051 | 66 | 315 | 5.0 | 21.0 | 0.00 | 0.56 | 0.32 | 76 | 1010.1 |
| 20260831132550 | 66 | 247 | 4.0 | 22.0 | 0.00 | 0.56 | 0.32 | 76 | 1009.9 |
| 20260831132050 | 66 | 303 | 4.0 | 19.0 | 0.00 | 0.56 | 0.32 | 76 | 1009.9 |
| 20260831131550 | 66 | 334 | 5.0 | 20.0 | 0.00 | 0.56 | 0.32 | 77 | 1009.9 |
| 20260831131048 | 66 | 258 | 6.0 | 21.0 | 0.00 | 0.56 | 0.32 | 75 | 1009.9 |
| 20260831130550 | 66 | 186 | 5.0 | 21.0 | 0.00 | 0.56 | 0.32 | 76 | 1009.8 |
| 20260831130048 | 66 | 315 | 4.0 | 14.0 | 0.00 | 0.56 | 0.32 | 77 | 1009.7 |
| 20260831125547 | 66 | 333 | 6.0 | 20.0 | 0.00 | 0.57 | 0.32 | 76 | 1009.7 |
| 20260831125047 | 66 | 316 | 6.0 | 20.0 | 0.00 | 0.57 | 0.32 | 75 | 1009.6 |
| 20260831124557 | 66 | 292 | 6.0 | 19.0 | 0.00 | 0.57 | 0.32 | 75 | 1009.6 |
| 20260831124045 | 66 | 333 | 7.0 | 17.0 | 0.00 | 0.57 | 0.32 | 75 | 1009.6 |
| 20260831123545 | 67 | 282 | 6.0 | 18.0 | 0.00 | 0.57 | 0.32 | 74 | 1009.4 |
| 20260831123045 | 67 | 286 | 6.0 | 18.0 | 0.00 | 0.57 | 0.32 | 73 | 1009.3 |
| 20260831122544 | 67 | 33 | 5.0 | 17.0 | 0.00 | 0.57 | 0.32 | 74 | 1009.3 |
| 20260831122044 | 68 | 200 | 4.0 | 15.0 | 0.00 | 0.57 | 0.32 | 77 | 1009.1 |
| 20260831121543 | 67 | 23 | 6.0 | 15.0 | 0.00 | 0.57 | 0.32 | 75 | 1009.1 |
| 20260831121043 | 68 | 302 | 6.0 | 15.0 | 0.00 | 0.57 | 0.32 | 74 | 1009.1 |
| 20260831120543 | 68 | 233 | 5.0 | 15.0 | 0.00 | 0.57 | 0.32 | 75 | 1008.9 |
| 20260831120048 | 68 | 63 | 3.0 | 12.0 | 0.00 | 0.57 | 0.32 | 76 | 1008.9 |
| 20260831115542 | 68 | 88 | 3.0 | 13.0 | 0.00 | 0.59 | 0.32 | 78 | 1008.8 |
| 20260831115040 | 67 | 289 | 3.0 | 10.0 | 0.00 | 0.59 | 0.32 | 79 | 1008.8 |
| 20260831114548 | 66 | 80 | 2.0 | 12.0 | 0.01 | 0.59 | 0.32 | 81 | 1008.7 |
| 20260831114039 | 66 | 140 | 3.0 | 16.0 | 0.01 | 0.59 | 0.32 | 81 | 1008.7 |
| 20260831113537 | 66 | 136 | 1.0 | 16.0 | 0.01 | 0.59 | 0.32 | 81 | 1008.6 |
| 20260831113037 | 66 | 17 | 1.0 | 12.0 | 0.01 | 0.59 | 0.32 | 80 | 1008.6 |
| 20260831112535 | 66 | 15 | 2.0 | 9.0 | 0.01 | 0.59 | 0.32 | 84 | 1008.6 |
| 20260831112036 | 65 | 313 | 2.0 | 14.0 | 0.01 | 0.59 | 0.32 | 88 | 1008.5 |
| 20260831111535 | 65 | 288 | 2.0 | 14.0 | 0.01 | 0.59 | 0.32 | 90 | 1008.5 |
| 20260831111035 | 64 | 157 | 2.0 | 6.0 | 0.02 | 0.59 | 0.32 | 92 | 1008.6 |
| 20260831110534 | 63 | 320 | 2.0 | 5.0 | 0.02 | 0.59 | 0.32 | 93 | 1008.5 |
| 20260831110034 | 63 | 299 | 2.0 | 5.0 | 0.02 | 0.59 | 0.32 | 93 | 1008.4 |
| 20260831105537 | 62 | 202 | 1.0 | 8.0 | 0.02 | 0.60 | 0.32 | 92 | 1008.3 |
| 20260831105034 | 62 | 224 | 3.0 | 8.0 | 0.06 | 0.60 | 0.32 | 92 | 1008.3 |
| 20260831104634 | 62 | 142 | 2.0 | 14.0 | 0.13 | 0.59 | 0.31 | 92 | 1008.2 |
| 20260831104034 | 62 | 102 | 3.0 | 9.0 | 0.27 | 0.59 | 0.31 | 93 | 1008.0 |
| 20260831103534 | 62 | 239 | 2.0 | 9.0 | 0.28 | 0.59 | 0.31 | 94 | 1008.0 |
| 20260831103036 | 61 | 135 | 2.0 | 7.0 | 0.28 | 0.59 | 0.31 | 93 | 1007.9 |
| 20260831102534 | 60 | 49 | 1.0 | 7.0 | 0.28 | 0.59 | 0.31 | 93 | 1008.0 |
| 20260831102031 | 60 | 162 | 1.0 | 15.0 | 0.28 | 0.59 | 0.31 | 93 | 1008.0 |
| 20260831101531 | 60 | 211 | 2.0 | 15.0 | 0.28 | 0.57 | 0.31 | 93 | 1008.1 |
| 20260831101030 | 60 | 13 | 4.0 | 12.0 | 0.28 | 0.57 | 0.31 | 93 | 1008.1 |
| 20260831100530 | 60 | 310 | 3.0 | 6.0 | 0.28 | 0.56 | 0.30 | 93 | 1007.9 |
| 20260831100040 | 59 | 76 | 1.0 | 6.0 | 0.28 | 0.56 | 0.30 | 92 | 1007.9 |
| 20260831095529 | 59 | 35 | 1.0 | 13.0 | 0.28 | 0.69 | 0.30 | 91 | 1008.1 |
| 20260831095028 | 60 | 325 | 3.0 | 15.0 | 0.21 | 0.62 | 0.24 | 89 | 1008.2 |
| 20260831094527 | 61 | 176 | 6.0 | 15.0 | 0.13 | 0.54 | 0.16 | 86 | 1008.0 |
| 20260831094026 | 64 | 61 | 6.0 | 17.0 | 0.02 | 0.43 | 0.05 | 82 | 1008.0 |
| 20260831093533 | 65 | 54 | 4.0 | 13.0 | 0.00 | 0.41 | 0.02 | 82 | 1007.8 |
| 20260831093035 | 66 | 121 | 4.0 | 11.0 | 0.00 | 0.41 | 0.02 | 81 | 1007.4 |
| 20260831092525 | 66 | 148 | 3.0 | 11.0 | 0.00 | 0.41 | 0.02 | 82 | 1007.3 |
| 20260831092025 | 66 | 161 | 5.0 | 12.0 | 0.00 | 0.41 | 0.02 | 83 | 1007.2 |
| 20260831091523 | 66 | 106 | 4.0 | 12.0 | 0.00 | 0.41 | 0.02 | 83 | 1007.1 |
| 20260831091026 | 65 | 142 | 3.0 | 9.0 | 0.00 | 0.41 | 0.02 | 85 | 1007.0 |
| 20260831090521 | 64 | 204 | 3.0 | 14.0 | 0.00 | 0.41 | 0.02 | 86 | 1007.0 |
| 20260831090020 | 64 | 205 | 4.0 | 11.0 | 0.00 | 0.41 | 0.02 | 89 | 1007.1 |
| 20260831085519 | 63 | 232 | 2.0 | 8.0 | 0.00 | 0.49 | 0.02 | 90 | 1007.1 |
| 20260831085017 | 63 | 134 | 1.0 | 7.0 | 0.00 | 0.49 | 0.02 | 90 | 1007.1 |
| 20260831084517 | 63 | 194 | 1.0 | 7.0 | 0.01 | 0.49 | 0.02 | 90 | 1007.1 |
| 20260831084016 | 63 | 186 | 2.0 | 9.0 | 0.01 | 0.49 | 0.02 | 90 | 1007.2 |
| 20260831083516 | 63 | 107 | 2.0 | 9.0 | 0.01 | 0.49 | 0.02 | 89 | 1007.2 |
| 20260831083035 | 63 | 213 | 2.0 | 8.0 | 0.01 | 0.49 | 0.02 | 89 | 1007.1 |
| 20260831082515 | 63 | 170 | 2.0 | 8.0 | 0.01 | 0.49 | 0.02 | 90 | 1007.2 |
| 20260831082016 | 63 | 113 | 1.0 | 8.0 | 0.01 | 0.49 | 0.02 | 89 | 1007.1 |
| 20260831081517 | 63 | 117 | 1.0 | 10.0 | 0.01 | 0.49 | 0.02 | 89 | 1007.1 |
| 20260831081017 | 63 | 121 | 2.0 | 10.0 | 0.01 | 0.49 | 0.02 | 89 | 1007.1 |
| 20260831080515 | 63 | 279 | 2.0 | 10.0 | 0.01 | 0.49 | 0.02 | 89 | 1007.2 |
| 20260831080019 | 63 | 90 | 3.0 | 13.0 | 0.01 | 0.49 | 0.02 | 89 | 1007.2 |
| 20260831075513 | 63 | 188 | 3.0 | 13.0 | 0.01 | 0.70 | 0.02 | 90 | 1007.1 |
| 20260831075013 | 63 | 173 | 4.0 | 12.0 | 0.01 | 0.70 | 0.02 | 90 | 1007.1 |
| 20260831074517 | 63 | 192 | 2.0 | 9.0 | 0.00 | 0.69 | 0.02 | 91 | 1007.1 |
| 20260831074015 | 62 | 186 | 4.0 | 10.0 | 0.00 | 0.69 | 0.02 | 92 | 1007.0 |
| 20260831073511 | 62 | 180 | 4.0 | 10.0 | 0.00 | 0.69 | 0.02 | 92 | 1007.0 |
| 20260831073011 | 62 | 214 | 3.0 | 10.0 | 0.00 | 0.69 | 0.02 | 93 | 1006.9 |
| 20260831072510 | 62 | 126 | 3.0 | 10.0 | 0.00 | 0.69 | 0.02 | 93 | 1006.9 |
| 20260831072012 | 62 | 146 | 5.0 | 10.0 | 0.00 | 0.69 | 0.02 | 93 | 1006.9 |
| 20260831071522 | 62 | 216 | 4.0 | 11.0 | 0.01 | 0.69 | 0.02 | 93 | 1007.0 |
| 20260831071008 | 62 | 55 | 3.0 | 11.0 | 0.01 | 0.69 | 0.02 | 93 | 1007.1 |
| 20260831070508 | 62 | 130 | 2.0 | 7.0 | 0.01 | 0.69 | 0.02 | 93 | 1006.8 |
| 20260831070018 | 62 | 121 | 2.0 | 7.0 | 0.01 | 0.69 | 0.02 | 93 | 1006.6 |
| 20260831065508 | 62 | 244 | 2.0 | 6.0 | 0.01 | 0.77 | 0.02 | 93 | 1006.8 |
| 20260831065010 | 62 | 135 | 1.0 | 8.0 | 0.01 | 0.77 | 0.02 | 93 | 1007.1 |
| 20260831064506 | 62 | 130 | 3.0 | 8.0 | 0.01 | 0.77 | 0.02 | 94 | 1007.3 |
| 20260831064005 | 62 | 150 | 2.0 | 8.0 | 0.01 | 0.77 | 0.02 | 93 | 1007.4 |
| 20260831063505 | 62 | 144 | 2.0 | 10.0 | 0.01 | 0.77 | 0.02 | 93 | 1007.6 |
| 20260831063005 | 62 | 95 | 1.0 | 10.0 | 0.01 | 0.77 | 0.02 | 93 | 1007.6 |
| 20260831062505 | 62 | 105 | 2.0 | 8.0 | 0.01 | 0.77 | 0.02 | 93 | 1007.6 |
| 20260831062005 | 62 | 342 | 2.0 | 9.0 | 0.01 | 0.77 | 0.02 | 93 | 1007.6 |
| 20260831061506 | 62 | 113 | 2.0 | 5.0 | 0.00 | 0.76 | 0.01 | 93 | 1007.6 |
| 20260831061004 | 62 | 190 | 1.0 | 6.0 | 0.00 | 0.76 | 0.01 | 93 | 1007.6 |
| 20260831060504 | 62 | 69 | 2.0 | 6.0 | 0.00 | 0.76 | 0.01 | 93 | 1007.5 |
| 20260831060005 | 62 | 125 | 1.0 | 5.0 | 0.00 | 0.76 | 0.01 | 93 | 1007.4 |
| 20260831055504 | 62 | 96 | 2.0 | 6.0 | 0.00 | 0.97 | 0.01 | 93 | 1007.3 |
| 20260831055005 | 62 | 184 | 2.0 | 9.0 | 0.00 | 0.97 | 0.01 | 93 | 1007.3 |
| 20260831054503 | 62 | 113 | 2.0 | 9.0 | 0.00 | 0.97 | 0.01 | 93 | 1007.4 |
| 20260831054003 | 62 | 237 | 2.0 | 8.0 | 0.00 | 0.97 | 0.01 | 94 | 1007.2 |
| 20260831053501 | 61 | 114 | 2.0 | 7.0 | 0.00 | 0.97 | 0.01 | 94 | 1007.1 |
| 20260831053105 | 61 | 117 | 3.0 | 7.0 | 0.00 | 0.97 | 0.01 | 96 | 1007.0 |
| 20260831052557 | 61 | 261 | 3.0 | 7.0 | 0.00 | 0.97 | 0.01 | 94 | 1007.1 |
| 20260831052056 | 61 | 133 | 2.0 | 7.0 | 0.00 | 0.97 | 0.01 | 94 | 1007.1 |
| 20260831051555 | 61 | 107 | 2.0 | 6.0 | 0.00 | 0.97 | 0.01 | 94 | 1007.1 |
| 20260831051053 | 61 | 101 | 2.0 | 8.0 | 0.00 | 0.97 | 0.01 | 94 | 1007.2 |
| 20260831050552 | 61 | 132 | 3.0 | 8.0 | 0.00 | 0.97 | 0.01 | 94 | 1007.1 |
| 20260831050109 | 61 | 115 | 2.0 | 6.0 | 0.00 | 0.97 | 0.01 | 94 | 1007.0 |
| 20260831045552 | 61 | 145 | 2.0 | 7.0 | 0.00 | 0.97 | 0.01 | 94 | 1007.0 |
| 20260831045051 | 61 | 150 | 1.0 | 7.0 | 0.00 | 0.97 | 0.01 | 94 | 1007.1 |
| 20260831044614 | 61 | 182 | 2.0 | 6.0 | 0.00 | 0.97 | 0.01 | 95 | 1007.1 |
| 20260831044050 | 61 | 98 | 2.0 | 6.0 | 0.00 | 0.97 | 0.01 | 95 | 1007.2 |
| 20260831043549 | 61 | 253 | 2.0 | 6.0 | 0.00 | 0.97 | 0.01 | 95 | 1007.2 |
| 20260831043050 | 61 | 160 | 1.0 | 5.0 | 0.00 | 0.97 | 0.01 | 95 | 1007.1 |
| 20260831042549 | 61 | 127 | 1.0 | 5.0 | 0.00 | 0.97 | 0.01 | 95 | 1007.1 |
| 20260831042048 | 61 | 121 | 1.0 | 5.0 | 0.00 | 0.97 | 0.01 | 95 | 1007.1 |
| 20260831041602 | 61 | 83 | 2.0 | 4.0 | 0.00 | 0.97 | 0.01 | 95 | 1007.2 |
| 20260831041049 | 61 | 146 | 1.0 | 7.0 | 0.00 | 0.97 | 0.01 | 96 | 1007.2 |
| 20260831040548 | 61 | 158 | 1.0 | 8.0 | 0.00 | 0.97 | 0.01 | 96 | 1007.1 |
| 20260831040048 | 61 | 105 | 1.0 | 8.0 | 0.00 | 0.97 | 0.01 | 96 | 1007.1 |
| 20260831035548 | 61 | 152 | 1.0 | 3.0 | 0.00 | 0.97 | 0.01 | 96 | 1007.1 |